This is the latest recevied weather packets stored in our database for station/object KB2FWP. If no packets are shown the sender has not sent any weather packets the latest 10 day(s).
| Time | Temp. | Humidity | Pressure | Rain* | Wind** | Luminosity | Snow |
|---|---|---|---|---|---|---|---|
| 1787618717 | 24.44° C | 62% | 1015.9 hPa | 0 mm | - | - | - |
| 1787617815 | 24.44° C | 66% | 1015.8 hPa | 0 mm | - | - | - |
| 1787616915 | 23.89° C | 73% | 1015.5 hPa | 0 mm | - | - | - |
| 1787616014 | 23.89° C | 77% | 1015.3 hPa | 0 mm | - | - | - |
| 1787615114 | 23.89° C | 80% | 1015.1 hPa | 0 mm | - | - | - |
| 1787614213 | 24.44° C | 79% | 1015 hPa | 0 mm | - | - | - |
| 1787613313 | 24.44° C | 78% | 1014.9 hPa | 0 mm | - | - | - |
| 1787612418 | 24.44° C | 76% | 1014.9 hPa | 0 mm | - | - | - |
| 1787611514 | 24.44° C | 74% | 1014.8 hPa | 0 mm | - | - | - |
| 1787610616 | 25° C | 72% | 1014.7 hPa | 0 mm | - | - | - |
| 1787609710 | 25.56° C | 72% | 1014.8 hPa | 0 mm | - | - | - |
| 1787608870 | 25° C | 71% | 1014.8 hPa | 0 mm | - | - | - |
| 1787607915 | 25.56° C | 68% | 1014.8 hPa | 0 mm | - | - | - |
| 1787607009 | 26.11° C | 71% | 1014.8 hPa | 0 mm | - | - | - |
| 1787606109 | 25.56° C | 70% | 1014.8 hPa | 0 mm | - | - | - |
| 1787605207 | 26.11° C | 68% | 1014.9 hPa | 0 mm | - | - | - |
| 1787604308 | 26.11° C | 64% | 1014.8 hPa | 0 mm | - | - | - |
| 1787603406 | 26.67° C | 63% | 1014.7 hPa | 0 mm | - | - | - |
| 1787602505 | 26.11° C | 66% | 1014.8 hPa | 0 mm | - | - | - |
| 1787601605 | 26.67° C | 64% | 1015 hPa | 0 mm | - | - | - |
| 1787600704 | 26.67° C | 63% | 1014.9 hPa | 0 mm | - | - | - |
| 1787599804 | 26.67° C | 61% | 1014.8 hPa | 0 mm | - | - | - |
| 1787598903 | 26.67° C | 61% | 1014.7 hPa | 0 mm | - | - | - |
| 1787598001 | 27.22° C | 61% | 1014.8 hPa | 0 mm | - | - | - |
| 1787597104 | 26.11° C | 60% | 1014.9 hPa | 0 mm | - | - | - |
* Rain latest hour (hover to see other rain measurements)
** Current wind speed in m/s (hover to see current wind gust speed)